This demonstration page uses our WeatherBlox Daily Observations layout. Learn more.

Left ArrowRight Arrow

36.17497, -115.13722

Hourly Observations for October 17, 2021

Temp ( °F °C ) Dew Point ( °F °C ) Humidity (%) Winds ( mph kmh ) Pressure ( in mb ) Visibility ( mi km ) Precip ( " mm )
12:53 am 00:53 Clear 59 15 24 -4.4 26 26 N N/A 30.04 1017 10 16 N/A
1:53 am 01:53 Clear 59 15 24 -4.4 26 26 W 6 9 30.04 1017 10 16 N/A
2:53 am 02:53 Clear 56 13.3 25 -3.9 30 30 NW 7 11 30.02 1017 10 16 N/A
3:53 am 03:53 Clear 56 13.3 24 -4.4 29 29 NW 8 13 30.01 1016 10 16 N/A
4:53 am 04:53 Clear 54 12.2 25 -3.9 33 33 W 6 9 30.01 1016 10 16 N/A
5:53 am 05:53 Clear 53 11.7 25 -3.9 34 34 WNW 7 11 30.02 1017 10 16 N/A
6:53 am 06:53 Sunny 54 12.2 24 -4.4 31 31 SW 3 6 30.01 1016 10 16 N/A
7:53 am 07:53 Sunny 60 15.6 24 -4.4 25 25 W 3 6 30.02 1017 10 16 N/A
8:53 am 08:53 Sunny 65 18.3 24 -4.4 21 21 SSE 5 7 30.02 1017 10 16 N/A
9:53 am 09:53 Sunny 67 19.4 23 -5 19 19 ESE 6 9 30.01 1016 10 16 N/A
10:53 am 10:53 Sunny 71 21.7 23 -5 16 16 ESE 8 13 30.00 1016 10 16 N/A
11:53 am 11:53 Sunny 75 23.9 24 -4.4 15 15 E 7 11 29.97 1015 10 16 N/A
12:53 pm 12:53 Sunny 76 24.4 23 -5 14 14 ESE 7 11 29.93 1013 10 16 N/A
1:53 pm 13:53 Sunny 79 26.1 23 -5 12 12 ESE 8 13 29.88 1012 10 16 N/A
2:53 pm 14:53 Sunny 81 27.2 23 -5 12 12 SE 9 15 29.85 1011 10 16 N/A
3:53 pm 15:53 Sunny 82 27.8 24 -4.4 12 12 SE 9 15 29.83 1010 10 16 N/A
4:53 pm 16:53 Sunny 83 28.3 24 -4.4 11 11 ESE 10 17 29.80 1009 10 16 N/A
5:53 pm 17:53 Sunny 81 27.2 18 -7.8 9 9 SW 12 19 29.78 1008 10 16 N/A
6:53 pm 18:53 Clear 77 25 17 -8.3 10 10 SW 13 20 29.79 1009 10 16 N/A
7:53 pm 19:53 Clear 75 23.9 17 -8.3 11 11 SW 8 13 29.80 1009 10 16 N/A
8:53 pm 20:53 Clear 71 21.7 19 -7.2 14 14 SSE 8 13 29.80 1009 10 16 N/A
9:53 pm 21:53 Clear 71 21.7 18 -7.8 13 13 S 13 20 29.80 1009 10 16 N/A
10:53 pm 22:53 Clear 70 21.1 18 -7.8 14 14 SW 13 20 29.79 1009 10 16 N/A
11:53 pm 23:53 Clear 68 20 19 -7.2 15 15 SSE 8 13 29.78 1008 10 16 N/A

Powered by AerisWeather